Location: Contre
(49.7477°N, 2.0963°E)
Time: 13:39:50
(UTC+00:00)

CZ-4 R/B - Pass Details

Date: 03 February 2023
Orbit: 525 x 587 km, 97.7° (Epoch: 21 March)

Event Time Altitude Azimuth Distance (km) Brightness Sun altitude
Rises 19:37:32 0° 192° (SSW) 2,800 5.0 -27.3°
Reaches altitude 10° 19:39:54 10° 203° (SSW) 1,899 4.2 -27.6°
Maximum altitude 19:43:31 29° 265° (W) 1,072 3.3 -28.2°
Drops below altitude 10° 19:47:07 10° 326° (NW) 1,885 4.5 -28.8°
Sets 19:49:29 0° 338° (NNW) 2,776 5.3 -29.2°
